TimeCDT,TemperatureF,Dew PointF,Humidity,Sea Level PressureIn,VisibilityMPH,Wind Direction,Wind SpeedMPH,Gust SpeedMPH,PrecipitationIn,Events,Conditions,WindDirDegrees,DateUTC
12:56 AM,50.0,-9999,N/A,29.87,3.0,NNW,11.5,26.5,0.02,Rain,Light Rain,330,2013-05-04 05:56:00
1:36 AM,48.2,-9999,N/A,29.90,2.0,NNW,10.4,21.9,0.06,Rain,Heavy Rain,330,2013-05-04 06:36:00
1:43 AM,48.2,-9999,N/A,29.90,3.0,NNW,13.8,20.7,0.08,Rain,Heavy Rain,330,2013-05-04 06:43:00
1:56 AM,48.9,-9999,N/A,29.86,3.0,NNW,10.4,21.9,0.12,Rain,Rain,340,2013-05-04 06:56:00
2:03 AM,48.2,-9999,N/A,29.90,5.0,NNW,10.4,-,0.00,Rain,Light Rain,340,2013-05-04 07:03:00
2:18 AM,48.2,-9999,N/A,29.90,4.0,NNW,11.5,21.9,0.02,Rain,Rain,330,2013-05-04 07:18:00
2:44 AM,48.2,-9999,N/A,29.89,2.5,NW,15.0,20.7,0.06,Rain,Heavy Rain,320,2013-05-04 07:44:00
2:53 AM,48.2,-9999,N/A,29.89,6.0,NW,11.5,20.7,0.07,Rain,Light Rain,320,2013-05-04 07:53:00
2:56 AM,48.0,-9999,N/A,29.85,7.0,NNW,9.2,19.6,0.07,Rain,Light Rain,330,2013-05-04 07:56:00
3:56 AM,46.9,-9999,N/A,29.85,4.0,NNW,9.2,18.4,0.00,Rain,Light Rain,340,2013-05-04 08:56:00
4:56 AM,46.9,-9999,N/A,29.84,10.0,NNW,9.2,18.4,0.00,,Overcast,340,2013-05-04 09:56:00
5:14 AM,46.4,-9999,N/A,29.88,10.0,NNW,11.5,19.6,N/A,,Overcast,340,2013-05-04 10:14:00
5:36 AM,46.4,-9999,N/A,29.88,10.0,NNW,9.2,-,N/A,,Overcast,340,2013-05-04 10:36:00
5:56 AM,46.9,-9999,N/A,29.85,10.0,NNW,13.8,19.6,N/A,,Overcast,340,2013-05-04 10:56:00
6:47 AM,46.4,-9999,N/A,29.91,10.0,NNW,11.5,18.4,N/A,,Overcast,340,2013-05-04 11:47:00
6:56 AM,46.9,-9999,N/A,29.88,10.0,NNW,16.1,25.3,N/A,,Mostly Cloudy,340,2013-05-04 11:56:00
7:35 AM,48.2,44.6,87,29.92,10.0,NNW,8.1,16.1,N/A,,Mostly Cloudy,340,2013-05-04 12:35:00
7:56 AM,50.0,42.1,74,29.88,10.0,North,16.1,23.0,N/A,,Mostly Cloudy,360,2013-05-04 12:56:00
8:56 AM,52.0,41.0,66,29.89,10.0,North,15.0,26.5,N/A,,Scattered Clouds,350,2013-05-04 13:56:00
9:56 AM,57.0,39.9,53,29.91,10.0,NNW,18.4,26.5,N/A,,Scattered Clouds,340,2013-05-04 14:56:00
10:56 AM,60.1,39.0,46,29.91,10.0,NNW,12.7,21.9,N/A,,Scattered Clouds,330,2013-05-04 15:56:00
11:56 AM,62.1,37.0,39,29.90,10.0,NNW,21.9,27.6,N/A,,Partly Cloudy,340,2013-05-04 16:56:00
12:56 PM,64.9,37.9,37,29.88,10.0,NNW,18.4,25.3,N/A,,Partly Cloudy,330,2013-05-04 17:56:00
1:56 PM,66.0,36.0,33,29.87,10.0,North,10.4,26.5,N/A,,Clear,350,2013-05-04 18:56:00
2:56 PM,66.9,37.0,33,29.86,10.0,NNW,18.4,25.3,N/A,,Clear,330,2013-05-04 19:56:00
3:56 PM,66.9,37.0,33,29.84,10.0,North,12.7,26.5,N/A,,Clear,10,2013-05-04 20:56:00
4:56 PM,66.9,36.0,32,29.84,10.0,North,12.7,19.6,N/A,,Clear,360,2013-05-04 21:56:00
5:56 PM,66.0,35.1,32,29.84,10.0,NNW,8.1,20.7,N/A,,Clear,330,2013-05-04 22:56:00
6:56 PM,64.0,37.0,37,29.84,10.0,North,5.8,-,N/A,,Clear,350,2013-05-04 23:56:00
7:56 PM,55.9,41.0,57,29.86,10.0,Calm,Calm,-,N/A,,Clear,0,2013-05-05 00:56:00
8:56 PM,52.0,43.0,71,29.88,10.0,Calm,Calm,-,N/A,,Clear,0,2013-05-05 01:56:00
9:56 PM,50.0,44.1,80,29.90,10.0,Calm,Calm,-,0.00,,Clear,0,2013-05-05 02:56:00
10:56 PM,48.9,42.1,77,29.90,10.0,Calm,Calm,-,0.00,,Clear,0,2013-05-05 03:56:00
11:56 PM,46.9,41.0,80,29.88,10.0,Calm,Calm,-,N/A,,Clear,0,2013-05-05 04:56:00